Flag for Canada Weather past 2 weeks in Lloydminster, Alberta, Canada

Now
59 °F

Fog.


Feels Like: 58 °F
Forecast: 58 / 76 °F
Wind: 7 mph from West

Location: Lloydminister

Current Time: Jul 1, 2015 at 12:51:59 AM

Latest Report: Jul 1, 2015 at 12:00 AM


Visibility: 6 mi

Pressure: 29.99 "Hg

Humidity: 88%

Dew point: 55 °F

Location of LloydminsterLocation

Historic Weather in Lloydminster — Graph

°F

Lloydminster temperature yesterday

Maximum temperature yesterday: 72 °F (at 4:00 PM)
Minimum temperature yesterday: 59 °F (at 6:00 AM)
Average temperature yesterday: 64 °F

Past Weeks' High & Low Weather Summary

 TemperatureHumidityPressure
High91 °F (Jun 28, 4:00 PM)94% (Jun 20, 3:00 AM)30.17 "Hg (Jun 20, 3:00 AM)
Low43 °F (Jun 16, 5:00 AM)23% (Jun 16, 5:00 PM)29.77 "Hg (Jun 19, 4:00 PM)
Average63 °F61%29.99 "Hg
* Reported Jun 15 11:00 PM — Jun 30 11:00 PM, Lloydminster, Weather by CustomWeather, © 2015

Note: Actual official high and low records may vary slightly from our data, if they occured in-between our weather recording intervals... More about our weather records

Advertising

Lloydminster weather history for previous 24 hours

 ConditionsComfort  
Time TempWeatherWind HumidityBarometerVisibility
11:00 PM
Tue, Jun 30
61 °FFog.9 mph88%30.00 "Hg6 mi
10:00 PM61 °FHigh level clouds.6 mph88%29.98 "Hg5 mi
9:00 PM64 °FOvercast.6 mph60%29.98 "Hg5 mi
8:00 PM70 °FOvercast.6 mph64%29.97 "Hg5 mi
7:00 PM72 °FOvercast.9 mph61%29.97 "Hg5 mi
6:00 PM72 °FOvercast.8 mph61%29.97 "Hg5 mi
5:00 PM72 °FOvercast.8 mph65%29.98 "Hg6 mi
4:00 PM72 °FOvercast.9 mph65%29.98 "Hg6 mi
3:00 PM70 °FOvercast.9 mph73%29.99 "Hg5 mi
2:00 PM70 °FOvercast.8 mph64%30.00 "Hg5 mi
1:00 PM70 °FMostly cloudy.9 mph69%30.00 "Hg5 mi
12:00 PM64 °FOvercast.7 mph83%30.01 "Hg5 mi
11:00 AM63 °FOvercast.8 mph88%30.01 "Hg6 mi
10:00 AM61 °FSprinkles. Mostly cloudy.10 mph88%29.99 "Hg6 mi
9:00 AM61 °FOvercast.6 mph83%29.99 "Hg10 mi
8:00 AM61 °FLight rain. Overcast.6 mph88%29.97 "Hg10 mi
7:00 AM61 °FLight rain. Overcast.3 mph94%29.98 "Hg8 mi
6:00 AM59 °FLight rain. Overcast.2 mph94%29.99 "Hg7 mi
5:00 AM61 °FLight rain. Overcast.2 mph88%29.98 "Hg9 mi
4:00 AM61 °FLight rain. Overcast.5 mph88%29.98 "Hg9 mi
3:00 AM61 °FOvercast.5 mph88%30.00 "Hg9 mi
2:55 AM61 °FOvercast.5 mph88%30.00 "Hg9 mi
2:00 AM61 °FLight rain. Overcast.6 mph94%30.02 "Hg9 mi
1:00 AM63 °FLight rain. Overcast.7 mph88%30.02 "Hg9 mi
12:46 AM63 °FLight rain. Overcast.6 mph88%30.02 "Hg9 mi
12:00 AM63 °FOvercast.6 mph88%30.01 "Hg9 mi
Weather by CustomWeather, © 2015

See weather overviewHow to use our weather pages